FW8095 Weather Reports


Display with metric or nautical units.
time (UTC)temp
F
wind
direction
speed
MPH
gust
MPH
rain 1hr
in
rain 24hr
in
rain mn
in
humidity
%
barometer
mb
20240520144523 79 36 1.0 4.0 0.00 0.00 0.00 69 1017.7
20240520143025 78 15 1.0 4.0 0.00 0.00 0.00 70 1017.7
20240520141529 77 70 1.0 5.0 0.00 0.00 0.00 73 1017.8
20240520140022 76 75 1.0 5.0 0.00 0.00 0.00 75 1017.6
20240520134521 73 299 1.0 2.0 0.00 0.00 0.00 81 1017.4
20240520133026 71 0 1.0 5.0 0.00 0.00 0.00 82 1017.3
20240520131535 71 151 0.0 4.0 0.00 0.00 0.00 83 1017.0
20240520130023 72 214 0.0 3.0 0.00 0.00 0.00 81 1016.7
20240520124523 71 218 0.0 5.0 0.00 0.00 0.00 84 1016.5
20240520123025 71 269 1.0 5.0 0.00 0.00 0.00 84 1016.3
20240520121523 71 0 1.0 6.0 0.00 0.00 0.00 85 1016.4
20240520120029 70 0 0.0 4.0 0.00 0.00 0.00 88 1016.1
20240520114521 68 0 0.0 0.0 0.00 0.00 0.00 90 1016.0
20240520113026 68 0 0.0 3.0 0.00 0.00 0.00 90 1015.8
20240520111523 68 225 1.0 2.0 0.00 0.00 0.00 91 1015.5
20240520110022 68 250 0.0 1.0 0.00 0.00 0.00 91 1015.4
20240520104522 68 221 0.0 2.0 0.00 0.00 0.00 91 1014.9
20240520103026 68 0 0.0 1.0 0.00 0.00 0.00 91 1014.8
20240520101537 68 0 0.0 2.0 0.00 0.00 0.00 91 1014.8
20240520100025 68 252 0.0 2.0 0.00 0.00 0.00 91 1014.8
20240520094535 68 0 0.0 1.0 0.00 0.00 0.00 91 1014.6
20240520093026 68 0 0.0 1.0 0.00 0.00 0.00 92 1014.9
20240520091532 67 251 0.0 1.0 0.00 0.00 0.00 93 1014.9
20240520090021 67 0 0.0 0.0 0.00 0.00 0.00 93 1014.7
20240520084532 67 0 0.0 0.0 0.00 0.00 0.00 93 1014.9
20240520083022 67 0 0.0 0.0 0.00 0.00 0.00 93 1014.9
20240520081522 67 0 0.0 0.0 0.00 0.00 0.00 93 1014.7
20240520080020 67 0 0.0 0.0 0.00 0.00 0.00 93 1014.6
20240520074519 67 0 0.0 0.0 0.00 0.00 0.00 93 1014.5
20240520073023 67 0 0.0 0.0 0.00 0.00 0.00 93 1014.5
20240520071524 67 0 0.0 0.0 0.00 0.00 0.00 92 1014.5
20240520070027 67 0 0.0 0.0 0.00 0.00 0.00 92 1014.7
20240520064524 67 0 0.0 0.0 0.00 0.00 0.00 92 1014.8
20240520063035 68 0 0.0 0.0 0.00 0.00 0.00 92 1015.0
20240520061530 68 0 0.0 0.0 0.00 0.00 0.00 92 1014.6
20240520060023 68 0 0.0 0.0 0.00 0.00 0.00 91 1014.5
20240520054536 68 0 0.0 0.0 0.00 0.00 0.00 91 1014.6
20240520053024 68 0 0.0 0.0 0.00 0.00 0.00 90 1014.5
20240520051521 69 0 0.0 0.0 0.00 0.00 0.00 90 1014.6
20240520050041 69 0 0.0 0.0 0.00 0.00 0.00 89 1014.4
20240520044520 69 0 0.0 0.0 0.00 0.00 0.00 89 1014.3
20240520043021 69 0 0.0 0.0 0.00 0.00 0.00 89 1014.4
20240520041521 70 0 0.0 0.0 0.00 0.00 0.00 88 1014.4
20240520040032 70 0 0.0 0.0 0.00 0.00 0.00 88 1014.4
20240520034522 70 0 0.0 0.0 0.00 0.00 0.00 87 1014.5
20240520033022 71 0 0.0 0.0 0.00 0.00 0.00 86 1014.5
20240520031520 71 0 0.0 0.0 0.00 0.00 0.00 86 1014.4
20240520030031 72 0 0.0 0.0 0.00 0.00 0.00 85 1014.3
20240520024519 72 0 0.0 0.0 0.00 0.00 0.00 84 1014.4
20240520023018 73 0 0.0 0.0 0.00 0.00 0.00 81 1014.4
20240520021525 73 0 0.0 0.0 0.00 0.00 0.00 79 1014.4
20240520020026 74 0 0.0 0.0 0.00 0.00 0.00 78 1014.0
20240520014525 75 0 0.0 0.0 0.00 0.01 0.00 77 1014.0
20240520013025 75 0 0.0 0.0 0.00 0.01 0.00 75 1013.9
20240520011526 75 0 0.0 0.0 0.00 0.01 0.00 74 1013.8
20240520010024 76 0 0.0 0.0 0.00 0.01 0.00 73 1013.7
20240520004525 76 0 0.0 0.0 0.00 0.01 0.00 72 1013.7
20240520003024 76 0 0.0 0.0 0.00 0.01 0.00 71 1013.8
20240520001528 77 0 0.0 0.0 0.00 0.01 0.00 72 1013.7
20240520000021 77 0 0.0 0.0 0.00 0.01 0.00 71 1013.6
20240519234528 78 0 0.0 0.0 0.00 0.01 0.00 71 1013.5
20240519233023 78 0 0.0 0.0 0.00 0.01 0.00 69 1013.5
20240519231606 79 0 0.0 0.0 0.00 0.01 0.00 68 1013.6
20240519230023 80 0 0.0 1.0 0.00 0.01 0.00 67 1013.4
20240519224522 81 0 0.0 1.0 0.00 0.03 0.00 66 1013.5
20240519223022 82 0 0.0 1.0 0.00 0.03 0.00 64 1013.5
20240519221522 82 0 0.0 3.0 0.00 0.03 0.00 62 1013.6
20240519220027 82 285 0.0 3.0 0.00 0.03 0.00 63 1013.5
20240519214527 83 0 0.0 3.0 0.00 0.05 0.00 61 1013.5
20240519213024 83 0 0.0 1.0 0.00 0.05 0.00 60 1013.5
20240519211530 83 95 1.0 4.0 0.00 0.05 0.00 57 1013.5
20240519210028 84 110 0.0 5.0 0.00 0.05 0.00 59 1013.6
20240519204524 84 285 1.0 5.0 0.00 0.05 0.00 60 1013.6
20240519203023 84 79 0.0 5.0 0.00 0.05 0.00 60 1013.9
20240519201534 84 231 0.0 4.0 0.00 0.05 0.00 61 1013.9
20240519200023 84 0 1.0 6.0 0.00 0.05 0.00 60 1014.0
20240519194523 84 68 1.0 5.0 0.00 0.05 0.00 62 1014.3
20240519193024 84 303 1.0 7.0 0.00 0.05 0.00 60 1014.5
20240519191525 84 0 0.0 3.0 0.00 0.05 0.00 65 1014.8
20240519190022 84 110 1.0 7.0 0.00 0.05 0.00 60 1014.9
20240519184535 84 70 1.0 6.0 0.00 0.05 0.00 64 1015.1
20240519183022 83 110 1.0 4.0 0.00 0.05 0.00 63 1015.1
20240519181526 83 84 1.0 5.0 0.00 0.05 0.00 64 1015.1
20240519180026 81 274 0.0 4.0 0.00 0.05 0.00 68 1015.3
20240519174526 82 82 2.0 6.0 0.00 0.05 0.00 66 1015.4
20240519173023 82 77 2.0 7.0 0.00 0.05 0.00 65 1015.7
20240519171522 80 0 1.0 7.0 0.00 0.05 0.00 68 1015.9
20240519170021 82 89 1.0 8.0 0.00 0.05 0.00 67 1015.9
20240519164524 81 73 1.0 6.0 0.00 0.05 0.00 72 1016.2
20240519163023 80 101 1.0 4.0 0.00 0.05 0.00 72 1016.2
20240519161528 79 10 1.0 6.0 0.00 0.05 0.00 76 1016.2
20240519160020 78 280 0.0 5.0 0.00 0.05 0.00 75 1016.2
20240519154521 78 92 0.0 6.0 0.00 0.05 0.00 76 1016.3
20240519153022 78 85 0.0 6.0 0.00 0.05 0.00 77 1016.3
20240519151537 77 122 0.0 3.0 0.00 0.05 0.00 78 1016.4
20240519150021 76 82 1.0 4.0 0.00 0.05 0.00 80 1016.3